User: anonymous   Login
Location: Newark
(47.5783°N, 6.7622°E)
Time: 01:12:15
(UTC+00:00)
Language:

Vanguard 2 Rocket - Orbit

View from above orbital plane
View from above orbital plane
View from above satellite
View from above satellite

Ground track
Ground track

The orbit data is extracted from the following two-line orbital elements,

1    12U 59001B   20059.85750257 -.00000110  00000-0 -85836-4 0  9991
2    12  32.9099  14.3660 1667265 219.7758 126.8108 11.44304519509999
Epoch (UTC): 28 February 2020 20:34:48
Eccentricity: 0.1667265
inclination: 32.9099°
perigee height: 553 km
apogee height: 3327 km
right ascension of ascending node: 14.3660°
argument of perigee: 219.7758°
revolutions per day: 11.44304519
mean anomaly at epoch: 126.8108°
orbit number at epoch: 50999

The dashed part of the orbit path shows where the satellite is in the earth's shadow,  

DLR